Flag for U.S.A. Weather past 2 weeks in St. Paul, Minnesota, U.S.A.

Now
54 °F

Sunny.


Feels Like: 50 °F
Forecast: 37 / 59 °F
Wind: 14 mph from South

Location: St. Paul Downtown Holman Field

Current Time: Mar 30, 2015 at 4:05:57 PM

Latest Report: Mar 30, 2015 at 2:53 PM


Visibility: 10 mi

Pressure: 29.87 "Hg

Humidity: 45%

Dew point: 33 °F

Location of St. PaulLocation

Historic Weather in St. Paul — Graph

°F

St. Paul temperature yesterday

Maximum temperature yesterday: 53 °F (at 3:53 PM)
Minimum temperature yesterday: 34 °F (at 4:53 AM)
Average temperature yesterday: 43 °F

Past Weeks' High & Low Weather Summary

 TemperatureHumidityPressure
High68 °F (Mar 15, 4:53 PM)96% (Mar 24, 11:01 PM)30.53 "Hg (Mar 24, 11:01 PM)
Low19 °F (Mar 27, 5:53 AM)18% (Mar 17, 3:53 PM)29.57 "Hg (Mar 29, 10:53 AM)
Average37 °F58%30.13 "Hg
* Reported Mar 15 2:53 PM — Mar 30 2:53 PM, St. Paul, Weather by CustomWeather, © 2015

Note: Actual official high and low records may vary slightly from our data, if they occured in-between our weather recording intervals... More about our weather records

Advertising

St. Paul weather history for previous 24 hours

 ConditionsComfort  
Time TempWeatherWind HumidityBarometerVisibility
2:53 PM
Mon, Mar 30
54 °FSunny.14 mph45%29.87 "Hg10 mi
1:53 PM51 °FSunny.10 mph50%29.89 "Hg10 mi
12:53 PM48 °FOvercast.7 mph54%29.93 "Hg10 mi
11:53 AM47 °FBroken clouds.6 mph52%29.96 "Hg10 mi
10:53 AM44 °FMostly cloudy.5 mph55%29.97 "Hg10 mi
9:53 AM42 °FPartly sunny.No wind60%29.97 "Hg10 mi
8:53 AM39 °FOvercast.No wind70%29.98 "Hg10 mi
7:53 AM39 °FOvercast.No wind65%29.99 "Hg10 mi
6:53 AM36 °FPassing clouds.3 mph70%29.99 "Hg10 mi
5:53 AM37 °FClear.3 mph67%29.97 "Hg10 mi
4:53 AM39 °FPassing clouds.No wind62%29.96 "Hg10 mi
3:53 AM40 °FOvercast.No wind63%29.96 "Hg10 mi
2:53 AM41 °FMostly cloudy.5 mph60%29.97 "Hg10 mi
1:53 AM41 °FMostly cloudy.3 mph60%29.97 "Hg10 mi
12:53 AM44 °FMostly cloudy.7 mph51%29.98 "Hg10 mi
11:53 PM
Sun, Mar 29
42 °FPassing clouds.6 mph49%29.97 "Hg10 mi
10:53 PM45 °FClear.14 mph45%29.96 "Hg10 mi
9:53 PM45 °FClear.9 mph49%29.96 "Hg10 mi
8:53 PM46 °FClear.9 mph46%29.94 "Hg10 mi
7:53 PM48 °FSunny.13 mph43%29.91 "Hg10 mi
6:53 PM51 °FSunny.31 mph36%29.87 "Hg10 mi
5:53 PM52 °FSunny.30 mph37%29.83 "Hg10 mi
4:53 PM53 °FScattered clouds.29 mph39%29.79 "Hg10 mi
Weather by CustomWeather, © 2015

See weather overviewHow to use our weather pages